DW8414 Weather Reports


time (UTC)temp
C
wind
direction
speed
KPH
gust
KPH
rain 1hr
cm
rain 24hr
cm
rain mn
cm
humidity
%
barometer
mb
20260510143825 13 19 0.0 0.0 0.00 0.00 0.00 57 1022.7
20260510143321 13 53 0.0 8.0 0.00 0.00 0.00 58 1022.6
20260510143015 13 71 0.0 8.0 0.00 0.00 0.00 59 1020.8
20260510142823 13 79 0.0 8.0 0.00 0.00 0.00 58 1022.5
20260510142318 13 94 0.0 0.0 0.00 0.00 0.00 60 1022.5
20260510141825 13 28 0.0 0.0 0.00 0.00 0.00 62 1022.5
20260510141552 13 40 0.0 0.0 0.00 0.00 0.00 62 1020.6
20260510141347 13 70 0.0 0.0 0.00 0.00 0.00 63 1022.3
20260510140848 13 61 0.0 0.0 0.00 0.00 0.00 62 1022.1
20260510140321 13 57 0.0 4.8 0.00 0.00 0.00 61 1022.0
20260510140025 13 25 0.0 4.8 0.00 0.00 0.00 61 1020.3
20260510135823 13 101 0.0 0.0 0.00 0.00 0.00 61 1021.9
20260510135325 13 107 0.0 0.0 0.00 0.00 0.00 59 1021.7
20260510134844 13 107 0.0 0.0 0.00 0.00 0.00 58 1021.8
20260510134523 13 69 0.0 0.0 0.00 0.00 0.00 58 1020.1
20260510134330 13 69 0.0 0.0 0.00 0.00 0.00 58 1021.9
20260510133834 13 74 0.0 0.0 0.00 0.00 0.00 58 1021.9
20260510133334 13 76 0.0 0.0 0.00 0.00 0.00 59 1021.8
20260510133102 13 64 0.0 0.0 0.00 0.00 0.00 59 1020.1
20260510132825 13 64 0.0 0.0 0.00 0.00 0.00 59 1021.8
20260510132343 13 123 0.0 0.0 0.00 0.00 0.00 59 1021.8
20260510131835 13 128 0.0 4.8 0.00 0.00 0.00 59 1021.8
20260510131513 13 94 0.0 4.8 0.00 0.00 0.00 59 1019.9
20260510131332 13 126 0.0 4.8 0.00 0.00 0.00 59 1021.5
20260510130828 13 80 0.0 1.6 0.00 0.00 0.00 60 1021.3
20260510130325 13 69 0.0 1.6 0.00 0.00 0.00 61 1021.0
20260510130035 13 67 0.0 1.6 0.00 0.00 0.00 61 1019.2
20260510125827 13 52 0.0 1.6 0.00 0.00 0.00 61 1020.8
20260510125349 13 38 0.0 1.6 0.00 0.00 0.00 63 1020.6
20260510124817 13 15 0.0 1.6 0.00 0.00 0.00 65 1020.3
20260510124507 13 73 0.0 1.6 0.00 0.00 0.00 66 1018.4
20260510124322 13 63 0.0 1.6 0.00 0.00 0.00 66 1020.1
20260510123820 13 65 0.0 1.6 0.00 0.00 0.00 67 1020.1
20260510123319 13 43 0.0 1.6 0.00 0.00 0.00 67 1019.8
20260510123029 13 15 0.0 1.6 0.00 0.00 0.00 68 1017.8
20260510122830 13 53 0.0 1.6 0.00 0.00 0.00 68 1019.5
20260510122335 13 57 0.0 6.4 0.00 0.00 0.00 68 1019.3
20260510121853 13 344 1.6 6.4 0.00 0.00 0.00 68 1019.4
20260510121518 13 71 0.0 0.0 0.00 0.00 0.00 67 1017.4
20260510121327 14 42 0.0 0.0 0.00 0.00 0.00 67 1019.1
20260510120826 14 32 0.0 0.0 0.00 0.00 0.00 67 1019.1
20260510120325 14 37 0.0 3.2 0.00 0.00 0.00 66 1019.0
20260510120051 14 5 0.0 4.8 0.00 0.00 0.00 65 1017.0
20260510115849 15 11 0.0 6.4 0.00 0.00 0.00 64 1018.5
20260510115346 15 57 0.0 14.5 0.00 0.00 0.00 63 1018.3
20260510114819 15 42 1.6 14.5 0.00 0.00 0.00 62 1018.1
20260510114520 15 67 0.0 4.8 0.00 0.00 0.00 62 1016.3
20260510114320 15 49 0.0 1.6 0.00 0.00 0.00 62 1017.9
20260510113828 15 63 0.0 8.0 0.00 0.00 0.00 62 1017.8
20260510113329 15 20 0.0 8.0 0.00 0.00 0.00 62 1017.5
20260510113044 15 75 0.0 8.0 0.00 0.00 0.00 62 1015.7
20260510112819 15 22 0.0 6.4 0.00 0.00 0.00 62 1017.5
20260510112349 15 40 0.0 16.1 0.00 0.00 0.00 63 1017.3
20260510111829 15 71 4.8 16.1 0.00 0.00 0.00 63 1017.0
20260510111551 15 84 0.0 14.5 0.00 0.00 0.00 63 1015.2
20260510111345 15 13 0.0 14.5 0.00 0.00 0.00 64 1016.9
20260510110823 15 11 1.6 22.5 0.00 0.00 0.00 64 1016.8
20260510110353 15 25 6.4 22.5 0.00 0.00 0.00 65 1016.7
20260510110046 15 34 0.0 1.6 0.00 0.00 0.00 65 1015.1
20260510105832 15 26 0.0 17.7 0.00 0.00 0.00 65 1016.9
20260510105326 15 5 1.6 17.7 0.00 0.00 0.00 66 1017.0
20260510104830 15 53 0.0 8.0 0.00 0.00 0.00 66 1016.9
20260510104619 14 15 0.0 8.0 0.00 0.00 0.00 66 1015.2
20260510104329 15 31 0.0 8.0 0.00 0.00 0.00 67 1017.0
20260510103817 15 49 0.0 1.6 0.00 0.00 0.00 67 1017.0
20260510103328 15 16 0.0 1.6 0.00 0.00 0.00 67 1017.1
20260510103053 14 29 0.0 1.6 0.00 0.00 0.00 67 1015.4
20260510102832 15 29 0.0 1.6 0.00 0.00 0.00 66 1017.1
20260510102318 15 31 0.0 0.0 0.00 0.00 0.00 66 1017.0
20260510101905 15 11 0.0 0.0 0.00 0.00 0.00 66 1016.9
20260510101556 15 41 0.0 16.1 0.00 0.00 0.00 66 1015.2
20260510101346 15 38 0.0 16.1 0.00 0.00 0.00 65 1016.8
20260510100818 15 56 0.0 1.6 0.00 0.00 0.00 65 1016.7
20260510100319 15 34 0.0 11.3 0.00 0.00 0.00 65 1016.6
20260510100002 15 339 0.0 11.3 0.00 0.00 0.00 65 1014.9
20260510095818 15 23 0.0 11.3 0.00 0.00 0.00 65 1016.5
20260510095325 15 346 0.0 1.6 0.00 0.00 0.00 64 1016.5
20260510094828 15 346 0.0 8.0 0.00 0.00 0.00 64 1016.4
20260510094700 15 344 0.0 8.0 0.00 0.00 0.00 64 1014.7
20260510094343 15 11 0.0 12.9 0.00 0.00 0.00 64 1016.2
20260510093846 15 22 0.0 12.9 0.00 0.00 0.00 64 1016.1
20260510093329 15 49 0.0 9.7 0.00 0.00 0.00 64 1016.0
20260510093100 15 19 0.0 1.6 0.00 0.00 0.00 64 1014.4
20260510092814 15 23 0.0 1.6 0.00 0.00 0.00 64 1016.0
20260510092411 15 331 0.0 1.6 0.00 0.00 0.00 64 1016.0
20260510091815 15 30 0.0 1.6 0.00 0.00 0.00 63 1015.9
20260510091506 15 33 0.0 1.6 0.00 0.00 0.00 63 1014.1
20260510091321 15 38 0.0 9.7 0.00 0.00 0.00 64 1015.9
20260510090850 16 37 0.0 9.7 0.00 0.00 0.00 64 1015.7
20260510090321 16 35 0.0 1.6 0.00 0.00 0.00 64 1015.7
20260510090018 15 30 0.0 1.6 0.00 0.00 0.00 64 1014.0
20260510085820 16 65 0.0 0.0 0.00 0.00 0.00 63 1015.6
20260510085329 16 11 0.0 0.0 0.00 0.00 0.00 63 1015.6
20260510084835 16 56 0.0 0.0 0.00 0.00 0.00 63 1015.6
20260510084603 15 37 0.0 1.6 0.00 0.00 0.00 63 1014.0
20260510084324 16 45 0.0 1.6 0.00 0.00 0.00 63 1015.5
20260510083826 16 40 0.0 1.6 0.00 0.00 0.00 63 1015.5
20260510083330 16 10 0.0 1.6 0.00 0.00 0.00 63 1015.4
20260510083040 15 34 0.0 0.0 0.00 0.00 0.00 63 1013.8
20260510082839 16 36 0.0 0.0 0.00 0.00 0.00 63 1015.4
20260510082319 16 52 0.0 14.5 0.00 0.00 0.00 63 1015.5
20260510081820 16 15 0.0 14.5 0.00 0.00 0.00 63 1015.4
20260510081543 16 50 1.6 14.5 0.00 0.00 0.00 63 1013.8
20260510081321 16 30 0.0 6.4 0.00 0.00 0.00 64 1015.4
20260510080852 16 22 0.0 1.6 0.00 0.00 0.00 64 1015.3
20260510080328 16 31 0.0 1.6 0.00 0.00 0.00 63 1015.3
20260510080041 16 57 0.0 1.6 0.00 0.00 0.00 63 1013.7
20260510075826 16 61 0.0 1.6 0.00 0.00 0.00 63 1015.3
20260510075349 17 55 0.0 3.2 0.00 0.00 0.00 62 1015.3
20260510074832 17 47 0.0 3.2 0.00 0.00 0.00 61 1015.2
20260510074607 16 26 0.0 3.2 0.00 0.00 0.00 61 1013.5
20260510074326 17 26 0.0 0.0 0.00 0.00 0.00 61 1015.1
20260510073822 17 20 0.0 14.5 0.00 0.00 0.00 61 1015.1
20260510073331 17 11 1.6 14.5 0.00 0.00 0.00 61 1015.0
20260510073043 16 5 0.0 0.0 0.00 0.00 0.00 61 1013.5
20260510072825 17 41 0.0 0.0 0.00 0.00 0.00 61 1015.1
20260510072331 17 53 0.0 0.0 0.00 0.00 0.00 60 1015.0
20260510071827 17 63 0.0 0.0 0.00 0.00 0.00 60 1014.9
20260510071611 16 360 0.0 0.0 0.00 0.00 0.00 60 1013.3
20260510071358 17 5 0.0 1.6 0.00 0.00 0.00 60 1014.8
20260510070834 17 360 0.0 1.6 0.00 0.00 0.00 60 1014.7
20260510070401 17 50 0.0 0.0 0.00 0.00 0.00 60 1014.6
20260510070052 16 26 0.0 0.0 0.00 0.00 0.00 60 1013.0
20260510065849 17 42 0.0 0.0 0.00 0.00 0.00 60 1014.5
20260510065318 17 23 0.0 0.0 0.00 0.00 0.00 60 1014.4
20260510064829 17 47 0.0 0.0 0.00 0.00 0.00 60 1014.5
20260510064507 17 27 0.0 0.0 0.00 0.00 0.00 60 1012.8
20260510064331 17 50 0.0 0.0 0.00 0.00 0.00 60 1014.4
20260510063829 17 90 0.0 0.0 0.00 0.00 0.00 60 1014.2
20260510063330 17 26 0.0 0.0 0.00 0.00 0.00 60 1014.1
20260510063042 17 48 0.0 1.6 0.00 0.00 0.00 59 1012.5
20260510062831 17 47 0.0 1.6 0.00 0.00 0.00 59 1014.1
20260510062348 17 30 0.0 1.6 0.00 0.00 0.00 59 1014.1
20260510061850 18 54 0.0 1.6 0.00 0.00 0.00 59 1014.1
20260510061602 17 57 0.0 1.6 0.00 0.00 0.00 59 1012.5
20260510061341 18 48 0.0 0.0 0.00 0.00 0.00 58 1014.0
20260510060826 18 28 0.0 1.6 0.00 0.00 0.00 58 1014.0
20260510060331 18 43 0.0 1.6 0.00 0.00 0.00 57 1013.9
20260510060022 18 65 0.0 1.6 0.00 0.00 0.00 57 1012.3
20260510055831 18 51 0.0 1.6 0.00 0.00 0.00 57 1013.7
20260510055326 18 30 0.0 1.6 0.00 0.00 0.00 56 1013.6
20260510054830 18 52 0.0 6.4 0.00 0.00 0.00 56 1013.4
20260510054552 18 42 0.0 6.4 0.00 0.00 0.00 56 1012.0
20260510054338 18 42 0.0 6.4 0.00 0.00 0.00 57 1013.5
20260510053829 18 32 0.0 1.6 0.00 0.00 0.00 57 1013.3
20260510053331 18 44 0.0 1.6 0.00 0.00 0.00 58 1013.2
20260510053019 18 91 0.0 1.6 0.00 0.00 0.00 58 1011.7
20260510052833 18 55 0.0 1.6 0.00 0.00 0.00 58 1013.2
20260510052339 18 91 0.0 1.6 0.00 0.00 0.00 59 1013.1
20260510051842 18 94 0.0 0.0 0.00 0.00 0.00 59 1013.0
20260510051607 17 90 0.0 0.0 0.00 0.00 0.00 60 1011.4
20260510051332 18 71 0.0 0.0 0.00 0.00 0.00 60 1013.0
20260510050818 18 70 0.0 0.0 0.00 0.00 0.00 60 1013.0
20260510050322 18 69 0.0 0.0 0.00 0.00 0.00 60 1013.1
20260510050039 18 69 0.0 0.0 0.00 0.00 0.00 60 1011.7
20260510045819 18 69 0.0 0.0 0.00 0.00 0.00 60 1013.3
20260510045314 18 73 0.0 0.0 0.00 0.00 0.00 59 1013.3
20260510044820 18 78 0.0 0.0 0.00 0.00 0.00 59 1013.2
20260510044522 18 78 0.0 0.0 0.00 0.00 0.00 59 1011.7
20260510044326 18 88 0.0 1.6 0.00 0.00 0.00 59 1013.0
20260510043829 18 90 0.0 1.6 0.00 0.00 0.00 58 1013.0
20260510043327 18 56 0.0 0.0 0.00 0.00 0.00 58 1012.9
20260510043101 18 48 0.0 0.0 0.00 0.00 0.00 58 1011.4
20260510042846 19 52 0.0 0.0 0.00 0.00 0.00 58 1012.9
20260510042327 19 51 0.0 0.0 0.00 0.00 0.00 57 1012.9
20260510041852 19 61 0.0 0.0 0.00 0.00 0.00 56 1012.8
20260510041613 19 41 0.0 0.0 0.00 0.00 0.00 56 1011.3
20260510041317 20 48 0.0 0.0 0.00 0.00 0.00 56 1012.9
20260510040905 20 64 0.0 1.6 0.00 0.00 0.00 55 1012.9
20260510040344 20 57 0.0 0.0 0.00 0.00 0.00 55 1012.8
20260510040052 20 45 0.0 6.4 0.00 0.00 0.00 55 1011.3
20260510035835 20 46 0.0 6.4 0.00 0.00 0.00 55 1012.7
20260510035357 20 53 0.0 0.0 0.00 0.00 0.00 55 1012.8
20260510034836 20 22 0.0 0.0 0.00 0.00 0.00 54 1012.8
20260510034547 20 59 0.0 0.0 0.00 0.00 0.00 54 1011.0
20260510034344 20 66 0.0 0.0 0.00 0.00 0.00 54 1012.4
20260510033843 20 27 0.0 0.0 0.00 0.00 0.00 54 1012.4
20260510033320 20 40 0.0 0.0 0.00 0.00 0.00 54 1012.7
20260510033003 20 38 0.0 0.0 0.00 0.00 0.00 53 1011.3
20260510032853 20 18 0.0 0.0 0.00 0.00 0.00 53 1012.7
20260510032331 21 31 0.0 0.0 0.00 0.00 0.00 53 1012.5
20260510031844 21 61 0.0 0.0 0.00 0.00 0.00 52 1012.5
20260510031600 21 39 0.0 0.0 0.00 0.00 0.00 52 1011.0
20260510031345 21 66 0.0 0.0 0.00 0.00 0.00 52 1012.4
20260510030848 21 140 0.0 0.0 0.00 0.00 0.00 51 1012.4
20260510030327 21 143 0.0 0.0 0.00 0.00 0.00 50 1012.2
20260510030053 21 143 0.0 0.0 0.00 0.00 0.00 50 1010.8
20260510025820 21 143 0.0 3.2 0.00 0.00 0.00 49 1012.3
20260510025349 21 144 0.0 3.2 0.00 0.00 0.00 49 1012.1
20260510024834 22 155 0.0 0.0 0.00 0.00 0.00 49 1011.8
20260510024510 21 163 0.0 1.6 0.00 0.00 0.00 48 1010.3
20260510024346 22 113 0.0 1.6 0.00 0.00 0.00 48 1011.7
20260510023837 22 102 0.0 1.6 0.00 0.00 0.00 48 1011.4
20260510023321 22 90 0.0 0.0 0.00 0.00 0.00 47 1011.3
20260510023028 22 90 0.0 0.0 0.00 0.00 0.00 47 1009.9
20260510022819 22 91 0.0 1.6 0.00 0.00 0.00 47 1011.3
20260510022343 22 30 0.0 1.6 0.00 0.00 0.00 47 1010.9
20260510021842 22 71 0.0 1.6 0.00 0.00 0.00 47 1010.4
20260510021559 22 108 0.0 1.6 0.00 0.00 0.00 47 1008.9
20260510021342 22 48 0.0 0.0 0.00 0.00 0.00 47 1010.2
20260510020829 22 53 0.0 11.3 0.00 0.00 0.00 46 1009.6
20260510020323 23 69 0.0 20.9 0.00 0.00 0.00 45 1009.6
20260510020013 23 66 0.0 20.9 0.00 0.00 0.00 44 1008.4
20260510015819 23 51 1.6 20.9 0.00 0.00 0.00 43 1010.1
20260510015316 24 76 0.0 1.6 0.00 0.00 0.00 41 1010.6
20260510014819 25 44 0.0 0.0 0.00 0.00 0.00 39 1010.9
20260510014539 24 32 0.0 0.0 0.00 0.00 0.00 39 1009.7
20260510014328 25 30 0.0 0.0 0.00 0.00 0.00 38 1011.2
20260510013847 25 22 0.0 1.6 0.00 0.00 0.00 38 1011.3
20260510013328 25 36 0.0 1.6 0.00 0.00 0.00 37 1011.6
20260510013032 24 355 0.0 12.9 0.00 0.00 0.00 37 1010.3
20260510012830 25 36 0.0 12.9 0.00 0.00 0.00 37 1011.7
20260510012332 25 49 0.0 1.6 0.00 0.00 0.00 38 1011.7
20260510011917 25 13 0.0 8.0 0.00 0.00 0.00 39 1011.6
20260510011533 24 36 0.0 8.0 0.00 0.00 0.00 39 1010.1
20260510011333 25 52 0.0 20.9 0.00 0.00 0.00 38 1011.4
20260510010828 25 29 0.0 22.5 0.00 0.00 0.00 37 1011.3
20260510010328 24 264 6.4 22.5 0.00 0.00 0.00 35 1010.8
20260510010037 24 111 3.2 20.9 0.00 0.00 0.00 39 1009.4
20260510005825 24 204 0.0 6.4 0.00 0.00 0.00 37 1011.1
20260510005318 24 190 0.0 0.0 0.00 0.00 0.00 38 1010.4
20260510004828 25 168 0.0 0.0 0.00 0.00 0.00 42 1009.7
20260510004558 24 168 0.0 0.0 0.00 0.00 0.00 39 1008.0
20260510004333 25 168 0.0 0.0 0.00 0.00 0.00 38 1009.1
20260510003839 25 168 0.0 0.0 0.00 0.00 0.00 39 1008.8
20260510003355 25 149 0.0 0.0 0.00 0.00 0.00 39 1008.4
20260510003047 25 149 0.0 0.0 0.00 0.00 0.00 39 1006.7
20260510002839 26 149 0.0 0.0 0.00 0.00 0.00 38 1008.1
20260510002327 26 149 0.0 0.0 0.00 0.00 0.00 35 1007.9
20260510001827 26 149 0.0 0.0 0.00 0.00 0.00 34 1007.8
20260510001509 25 149 0.0 0.0 0.00 0.00 0.00 33 1006.3
20260510001415 26 149 0.0 0.0 0.00 0.00 0.00 32 1007.7
20260510000821 26 178 0.0 0.0 0.00 0.00 0.00 34 1007.5
20260510000348 26 219 0.0 0.0 0.00 0.00 0.00 36 1007.6
20260510000132 25 223 0.0 0.0 0.00 0.00 0.00 37 1006.2
20260509235822 26 223 0.0 0.0 0.00 0.00 0.00 37 1007.6
20260509235318 26 223 0.0 0.0 0.00 0.00 0.00 39 1007.7
20260509234838 26 223 0.0 0.0 0.00 0.00 0.00 41 1007.7
20260509234509 26 224 0.0 0.0 0.00 0.00 0.00 42 1006.3
20260509234320 26 224 0.0 0.0 0.00 0.00 0.00 42 1007.7
20260509233825 27 224 0.0 0.0 0.00 0.00 0.00 47 1007.7
20260509233347 27 224 0.0 0.0 0.00 0.00 0.00 45 1007.8
20260509233031 27 224 0.0 0.0 0.00 0.00 0.00 44 1006.4
20260509232827 27 224 0.0 0.0 0.00 0.00 0.00 44 1007.8
20260509232437 27 224 0.0 0.0 0.00 0.00 0.00 41 1007.8
20260509231909 27 224 0.0 0.0 0.00 0.00 0.00 33 1007.9
20260509231532 27 224 0.0 0.0 0.00 0.00 0.00 36 1006.4
20260509231316 27 224 0.0 0.0 0.00 0.00 0.00 37 1007.8
20260509230840 28 224 0.0 0.0 0.00 0.00 0.00 45 1007.8
20260509230347 28 224 0.0 0.0 0.00 0.00 0.00 45 1007.9
20260509230108 28 224 0.0 0.0 0.00 0.00 0.00 41 1006.6
20260509225838 28 224 0.0 0.0 0.00 0.00 0.00 40 1008.0
20260509225317 28 224 0.0 0.0 0.00 0.00 0.00 37 1008.1
20260509224821 28 225 0.0 0.0 0.00 0.00 0.00 29 1008.1
20260509224515 28 225 0.0 0.0 0.00 0.00 0.00 33 1006.8
20260509224322 29 225 0.0 0.0 0.00 0.00 0.00 32 1008.1
20260509223819 28 225 0.0 0.0 0.00 0.00 0.00 27 1008.1
20260509223340 29 225 0.0 0.0 0.00 0.00 0.00 25 1008.0
20260509223036 29 225 0.0 0.0 0.00 0.00 0.00 32 1006.6
20260509222819 29 225 0.0 0.0 0.00 0.00 0.00 32 1008.0
20260509222342 29 225 0.0 0.0 0.00 0.00 0.00 22 1007.9
20260509221843 29 224 0.0 0.0 0.00 0.00 0.00 24 1007.9
20260509221613 28 224 0.0 0.0 0.00 0.00 0.00 24 1006.6
20260509221335 29 225 0.0 0.0 0.00 0.00 0.00 26 1007.8
20260509220818 29 252 0.0 0.0 0.00 0.00 0.00 24 1007.9
20260509220334 30 257 0.0 1.6 0.00 0.00 0.00 25 1007.8
20260509220009 30 269 0.0 4.8 0.00 0.00 0.00 25 1006.5
20260509215835 30 218 0.0 4.8 0.00 0.00 0.00 23 1007.8
20260509215328 30 157 0.0 4.8 0.00 0.00 0.00 23 1007.8
20260509214844 30 204 0.0 4.8 0.00 0.00 0.00 24 1007.8
20260509214516 30 179 0.0 4.8 0.00 0.00 0.00 24 1006.5
20260509214326 30 267 0.0 4.8 0.00 0.00 0.00 24 1007.8
20260509213821 29 207 0.0 4.8 0.00 0.00 0.00 24 1007.9
20260509213325 30 223 0.0 3.2 0.00 0.00 0.00 24 1007.9
20260509213035 29 213 0.0 0.0 0.00 0.00 0.00 24 1006.6
20260509212827 30 213 0.0 6.4 0.00 0.00 0.00 22 1007.8
20260509212426 30 162 0.0 6.4 0.00 0.00 0.00 23 1007.9
20260509211830 30 222 0.0 1.6 0.00 0.00 0.00 23 1008.0
20260509211506 30 207 0.0 1.6 0.00 0.00 0.00 23 1006.7
20260509211331 30 207 0.0 6.4 0.00 0.00 0.00 24 1008.0
20260509210850 30 129 0.0 6.4 0.00 0.00 0.00 24 1008.1
20260509210405 30 146 0.0 4.8 0.00 0.00 0.00 23 1008.0
20260509210002 30 132 0.0 11.3 0.00 0.00 0.00 24 1006.8
20260509205832 30 146 0.0 11.3 0.00 0.00 0.00 25 1008.1
20260509205406 30 230 3.2 11.3 0.00 0.00 0.00 24 1008.2
20260509204819 30 146 1.6 6.4 0.00 0.00 0.00 25 1008.2
20260509204524 29 267 0.0 1.6 0.00 0.00 0.00 27 1007.1
20260509204322 30 223 0.0 3.2 0.00 0.00 0.00 25 1008.4
20260509203820 30 132 0.0 8.0 0.00 0.00 0.00 25 1008.4
20260509203338 30 205 0.0 8.0 0.00 0.00 0.00 23 1008.6
20260509203048 30 241 0.0 8.0 0.00 0.00 0.00 25 1007.3
20260509202829 30 226 1.6 8.0 0.00 0.00 0.00 25 1008.6
20260509202319 30 165 0.0 11.3 0.00 0.00 0.00 25 1008.6
20260509201845 30 270 0.0 11.3 0.00 0.00 0.00 25 1008.6
20260509201552 30 238 0.0 11.3 0.00 0.00 0.00 25 1007.3
20260509201343 30 157 1.6 6.4 0.00 0.00 0.00 23 1008.6
20260509200820 30 222 0.0 6.4 0.00 0.00 0.00 25 1008.8
20260509200319 30 222 0.0 0.0 0.00 0.00 0.00 25 1008.8
20260509200024 30 214 0.0 1.6 0.00 0.00 0.00 26 1007.6
20260509195817 30 244 0.0 1.6 0.00 0.00 0.00 27 1008.8
20260509195329 30 142 0.0 6.4 0.00 0.00 0.00 25 1008.8
20260509194819 29 155 1.6 8.0 0.00 0.00 0.00 27 1008.9
20260509194538 29 148 0.0 8.0 0.00 0.00 0.00 26 1007.7
20260509194320 29 214 0.0 8.0 0.00 0.00 0.00 27 1008.9
20260509193843 29 250 0.0 6.4 0.00 0.00 0.00 30 1009.0
20260509193342 29 214 1.6 6.4 0.00 0.00 0.00 27 1009.1
20260509193127 28 236 0.0 6.4 0.00 0.00 0.00 28 1007.9
20260509192858 29 169 0.0 6.4 0.00 0.00 0.00 29 1009.1
20260509192331 28 344 0.0 0.0 0.00 0.00 0.00 28 1009.1
20260509191854 28 281 0.0 0.0 0.00 0.00 0.00 28 1009.2
20260509191530 27 301 0.0 0.0 0.00 0.00 0.00 28 1008.1
20260509191329 28 300 0.0 0.0 0.00 0.00 0.00 28 1009.4
20260509190821 27 284 0.0 0.0 0.00 0.00 0.00 28 1009.4
20260509190314 27 250 0.0 0.0 0.00 0.00 0.00 31 1009.4
20260509190118 27 319 0.0 0.0 0.00 0.00 0.00 31 1008.2
20260509185817 27 267 0.0 0.0 0.00 0.00 0.00 30 1009.5
20260509185323 27 267 0.0 1.6 0.00 0.00 0.00 33 1009.5
20260509184825 27 310 0.0 1.6 0.00 0.00 0.00 30 1009.6
20260509184541 27 269 0.0 1.6 0.00 0.00 0.00 31 1008.5
20260509184338 27 259 0.0 0.0 0.00 0.00 0.00 32 1009.6
20260509183822 27 258 0.0 1.6 0.00 0.00 0.00 33 1009.7
20260509183330 27 266 0.0 4.8 0.00 0.00 0.00 31 1009.8
20260509183018 27 267 0.0 4.8 0.00 0.00 0.00 33 1008.7
20260509182825 27 267 0.0 6.4 0.00 0.00 0.00 30 1009.8
20260509182330 27 262 0.0 6.4 0.00 0.00 0.00 32 1009.9
20260509181838 27 257 0.0 6.4 0.00 0.00 0.00 31 1009.9
20260509181552 27 268 0.0 6.4 0.00 0.00 0.00 31 1008.8
20260509181323 27 188 0.0 6.4 0.00 0.00 0.00 30 1010.1
20260509180820 27 244 0.0 3.2 0.00 0.00 0.00 32 1010.2
20260509180320 27 196 0.0 4.8 0.00 0.00 0.00 32 1010.2
20260509180013 27 259 0.0 6.4 0.00 0.00 0.00 33 1009.0
20260509175820 27 259 0.0 6.4 0.00 0.00 0.00 32 1010.3
20260509175347 27 254 0.0 6.4 0.00 0.00 0.00 33 1010.3
20260509174828 27 238 0.0 6.4 0.00 0.00 0.00 33 1010.4
20260509174543 27 227 0.0 6.4 0.00 0.00 0.00 32 1009.2
20260509174340 27 220 0.0 6.4 0.00 0.00 0.00 34 1010.5
20260509173823 27 247 0.0 3.2 0.00 0.00 0.00 33 1010.5
20260509173353 27 265 0.0 6.4 0.00 0.00 0.00 32 1010.7
20260509173052 27 265 0.0 6.4 0.00 0.00 0.00 33 1009.7
20260509172846 27 259 0.0 8.0 0.00 0.00 0.00 32 1010.8
20260509172332 27 261 1.6 8.0 0.00 0.00 0.00 33 1010.9
20260509171829 27 267 1.6 8.0 0.00 0.00 0.00 37 1011.0
20260509171502 26 280 0.0 6.4 0.00 0.00 0.00 35 1009.9
20260509171358 26 275 0.0 6.4 0.00 0.00 0.00 35 1011.0
20260509170823 26 255 0.0 6.4 0.00 0.00 0.00 37 1011.1
20260509170328 26 273 0.0 4.8 0.00 0.00 0.00 40 1011.1
20260509170052 25 209 0.0 4.8 0.00 0.00 0.00 39 1010.1
20260509165824 25 229 0.0 6.4 0.00 0.00 0.00 40 1011.1
20260509165328 25 216 1.6 9.7 0.00 0.00 0.00 41 1011.1
20260509164817 25 233 0.0 4.8 0.00 0.00 0.00 37 1011.1
20260509164607 25 181 0.0 4.8 0.00 0.00 0.00 38 1010.1
20260509164318 25 291 0.0 8.0 0.00 0.00 0.00 38 1011.1
20260509163818 25 229 0.0 8.0 0.00 0.00 0.00 42 1011.2
20260509163320 25 224 0.0 8.0 0.00 0.00 0.00 42 1011.2
20260509163040 24 246 0.0 8.0 0.00 0.00 0.00 43 1010.2
20260509162820 25 238 0.0 6.4 0.00 0.00 0.00 45 1011.3
20260509162342 25 209 1.6 6.4 0.00 0.00 0.00 43 1011.3
20260509161825 25 290 0.0 1.6 0.00 0.00 0.00 45 1011.2
20260509161527 24 236 0.0 1.6 0.00 0.00 0.00 44 1010.1
20260509161321 24 226 0.0 1.6 0.00 0.00 0.00 46 1011.2
20260509160826 23 279 0.0 3.2 0.00 0.00 0.00 49 1011.2
20260509160347 23 213 0.0 3.2 0.00 0.00 0.00 50 1011.1
20260509160036 23 196 0.0 8.0 0.00 0.00 0.00 47 1010.1
20260509155821 23 192 0.0 8.0 0.00 0.00 0.00 46 1011.1
20260509155321 23 217 1.6 8.0 0.00 0.00 0.00 49 1011.1
20260509154826 23 249 0.0 8.0 0.00 0.00 0.00 46 1011.2
20260509154552 23 209 1.6 8.0 0.00 0.00 0.00 46 1010.2
20260509154354 24 258 0.0 8.0 0.00 0.00 0.00 46 1011.2
20260509153842 24 260 0.0 8.0 0.00 0.00 0.00 44 1011.1
20260509153320 24 212 0.0 1.6 0.00 0.00 0.00 44 1010.9
20260509153024 24 237 0.0 1.6 0.00 0.00 0.00 45 1009.9
20260509152822 24 247 0.0 4.8 0.00 0.00 0.00 46 1010.9
20260509152324 24 245 0.0 8.0 0.00 0.00 0.00 46 1011.1
20260509151847 23 212 0.0 6.4 0.00 0.00 0.00 50 1011.0
20260509151601 23 153 0.0 6.4 0.00 0.00 0.00 48 1010.0
20260509151323 23 236 0.0 6.4 0.00 0.00 0.00 51 1011.0
20260509150845 22 247 0.0 4.8 0.00 0.00 0.00 51 1011.1
20260509150345 22 233 0.0 4.8 0.00 0.00 0.00 52 1010.9
20260509150108 22 236 0.0 3.2 0.00 0.00 0.00 55 1010.0
20260509145832 22 232 0.0 3.2 0.00 0.00 0.00 53 1011.1
20260509145326 21 267 0.0 6.4 0.00 0.00 0.00 55 1010.9
20260509144823 21 254 0.0 6.4 0.00 0.00 0.00 58 1010.9
20260509144524 21 198 0.0 6.4 0.00 0.00 0.00 57 1009.9
20260509144346 21 232 0.0 6.4 0.00 0.00 0.00 58 1010.8